This is the latest recevied weather packets stored in our database for station/object N2PPN. If no packets are shown the sender has not sent any weather packets the latest 10 day(s).
| Time | Temp. | Humidity | Pressure | Rain* | Wind** | Luminosity | Snow |
|---|---|---|---|---|---|---|---|
| 1777991835 | 17.78° C | 76% | 1015.1 hPa | 0 mm | - | 589 W/m² | - |
| 1777991532 | 17.78° C | 75% | 1015.3 hPa | 0 mm | - | 581 W/m² | - |
| 1777991229 | 17.78° C | 76% | 1015.1 hPa | 0 mm | - | 570 W/m² | - |
| 1777990926 | 17.78° C | 76% | 1015.2 hPa | 0 mm | - | 559 W/m² | - |
| 1777990624 | 18.33° C | 75% | 1015.1 hPa | 0 mm | - | 550 W/m² | - |
| 1777990016 | 17.78° C | 76% | 1014.8 hPa | 0 mm | - | 525 W/m² | - |
| 1777989714 | 17.78° C | 75% | 1014.8 hPa | 0 mm | - | 524 W/m² | - |
| 1777989410 | 18.33° C | 76% | 1014.8 hPa | 0 mm | - | 510 W/m² | - |
| 1777989106 | 18.33° C | 74% | 1014.6 hPa | 0 mm | - | 497 W/m² | - |
| 1777988802 | 18.33° C | 74% | 1014.7 hPa | 0 mm | - | 485 W/m² | - |
| 1777988500 | 18.33° C | 74% | 1014.7 hPa | 0 mm | - | 473 W/m² | - |
| 1777988197 | 18.33° C | 75% | 1014.7 hPa | 0 mm | - | 461 W/m² | - |
| 1777987893 | 17.78° C | 76% | 1014.8 hPa | 0 mm | - | 448 W/m² | - |
| 1777987589 | 17.78° C | 76% | 1014.8 hPa | 0 mm | - | 433 W/m² | - |
| 1777987287 | 18.33° C | 76% | 1014.7 hPa | 0 mm | - | 422 W/m² | - |
| 1777986983 | 17.78° C | 77% | 1014.8 hPa | 0 mm | - | 406 W/m² | - |
| 1777986681 | 17.22° C | 78% | 1014.7 hPa | 0 mm | - | 393 W/m² | - |
| 1777986379 | 16.67° C | 79% | 1014.6 hPa | 0 mm | - | 377 W/m² | - |
| 1777986078 | 16.67° C | 81% | 1014.7 hPa | 0 mm | - | 366 W/m² | - |
| 1777985773 | 16.67° C | 81% | 1014.6 hPa | 0 mm | - | 350 W/m² | - |
| 1777985471 | 16.67° C | 81% | 1014.8 hPa | 0 mm | - | 334 W/m² | - |
| 1777985167 | 16.67° C | 81% | 1014.6 hPa | 0 mm | - | 323 W/m² | - |
| 1777984863 | 16.11° C | 82% | 1014.4 hPa | 0 mm | - | 308 W/m² | - |
| 1777984559 | 16.11° C | 82% | 1014.4 hPa | 0 mm | - | 290 W/m² | - |
| 1777984256 | 15.56° C | 83% | 1014.5 hPa | 0 mm | - | 276 W/m² | - |
* Rain latest hour (hover to see other rain measurements)
** Current wind speed in m/s (hover to see current wind gust speed)